Grand Island, NE

8:22 AM CDT on August 22, 2017 (GMT -0500)
Central Nebraska Regional

Weather History for KGRI - July, 2012

Change the Weather History Date:

Sunday, July 1, 2012

  Actual Average Record
Temperature  
Mean Temperature 82 °F 75 °F  
Max Temperature 94 °F 88 °F 105 °F (1974)
Min Temperature 69 °F 63 °F 47 °F (1995)
Degree Days  
Heating Degree Days 0 0  
Month to date heating degree days 0 0  
Since 1 June heating degree days 11 24  
Since 1 July heating degree days 0 0  
Cooling Degree Days 17 11  
Month to date cooling degree days 17 11  
Year to date cooling degree days 538 289  
Since 1 June cooling degree days 356 224  
Growing Degree Days 31 (Base 50)    
Moisture  
Dew Point 64 °F    
Average Humidity 56    
Maximum Humidity 79    
Minimum Humidity 32    
Precipitation  
Precipitation 0.00 in 0.12 in 1.20 in (1962)
Month to date precipitation 0.00 0.12  
Year to date precipitation 7.01 14.37  
Snow  
Snow 0.00 in 0.00 in - ()
Month to date snowfall 0.0 0.0  
Since 1 June snowfall 0.0 0.0  
Since 1 July snowfall 0.0 0.0  
Snow Depth 0.00 in    
Sea Level Pressure  
Sea Level Pressure 29.85 in    
Wind  
Wind Speed 10 mph (SSE)    
Max Wind Speed 20 mph    
Max Gust Speed 25 mph    
Visibility 10 miles    
Events      
T = Trace of Precipitation, MM = Missing Value Source: NWS Daily Summary

Daily Weather History Graph

Daily Weather History Graph

Search for Another Location

Airport or City:

Trip Planner

Search our weather history database for the weather conditions in past years. The results will help you decide how hot, cold, wet, or windy it might be!

Date:

Astronomy

Jul. 01, 2012 Rise Set
Actual Time 6:05 AM CDT 9:09 PM CDT
Civil Twilight 5:31 AM CDT 9:42 PM CDT
Nautical Twilight 4:49 AM CDT 10:24 PM CDT
Astronomical Twilight 3:58 AM CDT 11:15 PM CDT
Moon 7:13 PM CDT (7/1) 3:54 AM CDT (7/1)
Length of Visible Light 16h 10m
Length of Day
15h 03m
Waxing Gibbous, 94% of the Moon is Illuminated
Jul 1
Waxing Gibbous
Jul 3
Full
Jul 10
Last Quarter
Jul 18
New
Jul 26
First Quarter

Hourly Weather History & Observations

Time (CDT) Temp. Heat Index Dew Point Humidity Pressure Visibility Wind Dir Wind Speed Gust Speed Precip Events Conditions
12:53 AM 75.9 °F - 64.0 °F 67% 29.84 in 10.0 mi SSE 8.1 mph - N/A   Scattered Clouds
1:53 AM 73.0 °F - 64.0 °F 73% 29.84 in 10.0 mi South 9.2 mph - N/A   Clear
2:53 AM 71.1 °F - 63.0 °F 75% 29.85 in 10.0 mi South 6.9 mph - N/A   Clear
3:53 AM 77.0 °F - 59.0 °F 54% 29.82 in 10.0 mi South 15.0 mph 23.0 mph N/A   Partly Cloudy
4:53 AM 73.9 °F - 60.1 °F 62% 29.83 in 10.0 mi WSW 12.7 mph - N/A   Clear
5:53 AM 70.0 °F - 61.0 °F 73% 29.85 in 10.0 mi North 4.6 mph - N/A   Clear
6:53 AM 69.8 °F - 62.6 °F 78% 29.95 in 10.0 mi ESE 11.5 mph 16.1 mph N/A   Clear
7:53 AM 72.0 °F - 62.1 °F 71% 29.90 in 10.0 mi SE 3.5 mph - N/A   Clear
8:53 AM 75.0 °F - 63.0 °F 66% 29.90 in 10.0 mi South 6.9 mph - N/A   Clear
9:53 AM 81.0 °F 81.9 °F 62.1 °F 52% 29.89 in 10.0 mi SSE 11.5 mph - N/A   Clear
10:53 AM 84.9 °F 85.4 °F 62.1 °F 46% 29.90 in 10.0 mi South 8.1 mph - N/A   Clear
11:53 AM 89.1 °F 89.3 °F 62.1 °F 40% 29.90 in 10.0 mi SSE 9.2 mph - N/A   Clear
12:53 PM 91.0 °F 90.2 °F 59.0 °F 34% 29.89 in 10.0 mi SSW 12.7 mph - N/A   Clear
1:53 PM 93.0 °F 92.3 °F 59.0 °F 32% 29.88 in 10.0 mi South 13.8 mph - N/A   Clear
2:53 PM 93.0 °F 93.0 °F 61.0 °F 34% 29.86 in 10.0 mi South 12.7 mph - N/A   Clear
3:53 PM 93.0 °F 94.2 °F 63.0 °F 37% 29.84 in 10.0 mi SSE 13.8 mph 21.9 mph N/A   Clear
4:53 PM 91.0 °F 94.3 °F 66.9 °F 45% 29.83 in 10.0 mi SSE 18.4 mph - N/A   Clear
5:53 PM 91.9 °F 94.1 °F 64.9 °F 41% 29.82 in 10.0 mi South 13.8 mph - N/A   Clear
6:53 PM 91.9 °F 92.5 °F 62.1 °F 37% 29.80 in 10.0 mi South 12.7 mph - N/A   Clear
7:53 PM 88.0 °F 91.4 °F 68.0 °F 51% 29.81 in 10.0 mi SE 6.9 mph - N/A   Clear
8:53 PM 82.9 °F 88.8 °F 73.0 °F 72% 29.80 in 10.0 mi SE 4.6 mph - N/A   Clear
9:53 PM 81.0 °F 85.8 °F 73.0 °F 77% 29.81 in 10.0 mi SE 6.9 mph - N/A   Clear
10:53 PM 80.1 °F 83.8 °F 72.0 °F 76% 29.83 in 10.0 mi SSE 9.2 mph - N/A   Clear
11:53 PM 79.0 °F - 69.1 °F 72% 29.83 in 10.0 mi South 10.4 mph - N/A   Clear